BANXING-2 (41834 NORAD) Tracking and Keplerian Element Data

This shows tracking and keplerian element data for the satellite.

Feedback or suggestion? Click here.




ElementValue
Catalog41834
NameBANXING-2
Epoch Orbit9943
Epoch Day198.80309973
Epoch Year2018
RAAN107.3181
Inclination42.7824
Eccentricity0.0010902
Argument of Perigee187.4093
Mean Anonmoly275.7537
Mean Motion15.79669704
Decay Rate0.00015223
L11 41834U 16057H 18198.80309973 .00015223 00000-0 82819-4 0 9990
L22 41834 42.7824 107.3181 0010902 187.4093 275.7537 15.79669704 99439

Live tracking and technical data element details for BANXING-2 (NORAD 41834). BANXING-2 can be tracked NOW for your location showing map with azimuth and elevation plus other details from your city location.

Track the satellite on the map from your city or location and see movement details for azimuth, elevation, latitude, longitude, range, height, and movement on the map or in text.







IsCatalogInMostPopularTable: catalog: 41834, numindb: 72
Update: records affected: 1



GetName: 41834 BANXING-2

Hit Count: updated at: Thu, 19 Jul 2018 03:55:54 GMT